Flag for USA

Past Weather in Ashland, Nebraska, USA — Yesterday and Last 2 Weeks

Now
65 °F

Sunny.


Feels Like: 65 °F
Forecast: 90 / 63 °F
Wind: 7 mph from Southeast

Location: Millard Airport
Current Time: Sep 25, 2020 at 9:32:28 am
Latest Report: Sep 25, 2020 at 8:35 am
Visibility: 10 mi
Pressure29.79 "Hg
Humidity: 87%
Dew Point: 62 °F
Location of AshlandLocation

Past Weather in Ashland — Graph

°F

Ashland Temperature Yesterday

Maximum temperature yesterday: 87 °F (at 4:35 pm)
Minimum temperature yesterday: 62 °F (at 6:15 am)
Average temperature yesterday: 72 °F

High & Low Weather Summary for the Past Weeks

 TemperatureHumidityPressure
High87 °F (Sep 24, 4:35 pm)94% (Sep 11, 12:16 am)30.41 "Hg (Sep 11, 12:16 am)
Low47 °F (Sep 10, 7:35 am)35% (Sep 20, 4:35 pm)29.78 "Hg (Sep 24, 6:15 pm)
Average65 °F71%30.12 "Hg
* Reported Sep 10 7:35 am — Sep 25 7:55 am, Ashland. Weather by CustomWeather, © 2020

Note: Actual official high and low records may vary slightly from our data, if they occured in-between our weather recording intervals... More about our weather records

Ashland Weather History for the Previous 24 Hours

Scroll right to see more
 ConditionsComfort  
Time TempWeatherWind HumidityBarometerVisibility
7:55 am
Fri, Sep 25
63 °FSunny.6 mph90%29.79 "Hg10 mi
7:35 am63 °FSunny.5 mph89%29.79 "Hg10 mi
7:15 am63 °FSunny.5 mph90%29.79 "Hg10 mi
6:55 am62 °FClear.6 mph89%29.79 "Hg10 mi
6:35 am63 °FClear.No wind90%29.79 "Hg10 mi
6:15 am63 °FClear.5 mph90%29.78 "Hg10 mi
5:55 am62 °FClear.6 mph90%29.78 "Hg10 mi
5:35 am63 °FClear.6 mph90%29.78 "Hg10 mi
5:15 am63 °FClear.6 mph90%29.78 "Hg10 mi
4:55 am63 °FClear.6 mph90%29.78 "Hg10 mi
4:35 am63 °FClear.6 mph89%29.78 "Hg10 mi
4:15 am63 °FClear.6 mph89%29.78 "Hg10 mi
3:55 am64 °FClear.6 mph89%29.78 "Hg10 mi
3:35 am64 °FClear.3 mph88%29.78 "Hg10 mi
3:15 am65 °FClear.No wind88%29.78 "Hg10 mi
2:55 am65 °FClear.No wind87%29.79 "Hg10 mi
2:35 am65 °FClear.No wind87%29.79 "Hg10 mi
2:15 am65 °FClear.No wind87%29.79 "Hg10 mi
1:55 am65 °FClear.No wind87%29.79 "Hg10 mi
1:35 am66 °FClear.No wind87%29.79 "Hg10 mi
1:15 am67 °FClear.No wind83%29.79 "Hg10 mi
12:55 am67 °FClear.No wind83%29.79 "Hg10 mi
12:35 am68 °FClear.No wind80%29.79 "Hg10 mi
12:15 am69 °FClear.No wind80%29.78 "Hg10 mi
11:55 pm
Thu, Sep 24
69 °FClear.No wind79%29.78 "Hg10 mi
11:35 pm69 °FClear.No wind81%29.79 "Hg10 mi
11:15 pm69 °FClear.No wind82%29.79 "Hg10 mi
10:55 pm67 °FClear.No wind86%29.78 "Hg10 mi
10:35 pm68 °FClear.No wind85%29.79 "Hg10 mi
10:15 pm68 °FClear.No wind84%29.79 "Hg10 mi
9:55 pm69 °FClear.No wind82%29.79 "Hg10 mi
9:15 pm70 °FClear.No wind78%29.78 "Hg10 mi
8:55 pm71 °FClear.No wind78%29.79 "Hg10 mi
8:15 pm73 °FClear.No wind73%29.78 "Hg10 mi
7:55 pm74 °FClear.No wind71%29.78 "Hg10 mi
7:15 pm78 °FSunny.No wind64%29.78 "Hg10 mi
6:55 pm81 °FSunny.No wind57%29.78 "Hg10 mi
6:35 pm85 °FSunny.No wind48%29.78 "Hg10 mi
6:15 pm85 °FSunny.No wind48%29.78 "Hg10 mi
5:55 pm86 °FSunny.No wind43%29.79 "Hg10 mi
5:15 pm87 °FSunny.5 mph41%29.79 "Hg10 mi
4:55 pm87 °FSunny.6 mph41%29.79 "Hg10 mi
4:35 pm87 °FSunny.6 mph39%29.79 "Hg10 mi
4:15 pm85 °FSunny.5 mph42%29.80 "Hg10 mi
3:55 pm85 °FSunny.5 mph43%29.80 "Hg10 mi
3:35 pm85 °FSunny.No wind44%29.80 "Hg10 mi
3:15 pm84 °FSunny.5 mph47%29.81 "Hg10 mi
2:55 pm84 °FSunny.3 mph48%29.81 "Hg10 mi
2:35 pm83 °FSunny.3 mph49%29.82 "Hg10 mi
2:15 pm81 °FSunny.No wind53%29.82 "Hg10 mi
1:55 pm80 °FSunny.3 mph54%29.83 "Hg10 mi
1:35 pm79 °FSunny.3 mph56%29.84 "Hg10 mi
12:55 pm77 °FSunny.No wind59%29.85 "Hg10 mi
12:35 pm77 °FSunny.No wind60%29.86 "Hg10 mi
12:15 pm76 °FSunny.3 mph63%29.86 "Hg10 mi
11:55 am74 °FSunny.No wind65%29.86 "Hg10 mi
11:35 am73 °FSunny.No wind68%29.87 "Hg10 mi
11:15 am73 °FSunny.6 mph69%29.87 "Hg10 mi
10:55 am71 °FSunny.5 mph71%29.87 "Hg10 mi
10:35 am71 °FSunny.6 mph72%29.87 "Hg10 mi
9:55 am69 °FSunny.5 mph75%29.88 "Hg10 mi
9:35 am68 °FSunny.7 mph77%29.87 "Hg10 mi
Weather by CustomWeather, © 2020

See weather overview